Regional Weather Roundup
Issued by NWS

Home | Current Version | Previous Version | Text Only | Print | Product List | Glossary Off
Versions: 1 2 3 4 5 6 7 8 9 10 11 12 13 14 15 16 17 18 19 20 21 22 23 24 25 26 27 28 29 30 31 32 33 34 35 36 37 38 39 40 41 42 43 44 45 46 47 48 49 50

000
ASUS43 KMPX 171901
RWRMN
WEATHER ROUNDUP FOR MINNESOTA
NATIONAL WEATHER SERVICE TWIN CITIES/CHANHASSEN MN
100 PM CST SAT FEB 17 2018


NOTE: "FAIR" INDICATES FEW OR NO CLOUDS BELOW 12,000 FEET WITH NO
SIGNIFICANT WEATHER AND/OR OBSTRUCTIONS TO VISIBILITY. N/A MEANS
CURRENT SKY AND/OR WEATHER CONDITIONS ARE NOT AVAILABLE.

MNZ060>063-068>070-172000-
   Twin Cities Metro

CITY           SKY/WX    TMP DP  RH WIND       PRES   REMARKS
TWIN CITIES    FAIR      33  25  72 W8        29.88F WCI  26
ST PAUL        FAIR      31  23  72 W5        29.88F WCI  26
CRYSTAL        FAIR      33  20  58 W10       29.86F WCI  25
BLAINE         PTSUNNY   36  21  55 W8          N/A
LAKEVILLE      CLOUDY    28  25  86 W6        29.88F WCI  22
EDEN PRAIRIE   FAIR      32  23  69 W8        29.87F WCI  25
SOUTH ST PAUL  FAIR      32  23  71 W5        29.88F WCI  27
LAKE ELMO      CLOUDY    32  25  74 SW8       29.88F WCI  25
$$
MNZ001>005-007-008-013>017-022>024-027-028-172000-
   Northwest Minnesota

CITY           SKY/WX    TMP DP  RH WIND       PRES   REMARKS
BEMIDJI        FLURRIES  19  12  73 W13       29.84R WCI   7
HALLOCK        FAIR      19   7  58 NW13      29.89S WCI   7
WARROAD        FAIR      19   9  63 NW15      29.82R WCI   5
THIEF RVR FALL FLURRIES  18  11  74 NW16      29.88R WCI   3
CROOKSTON      FAIR      21   9  58 NW22      29.91S WCI   5
FOSSTON        FAIR      21  10  63 W14       29.87F WCI   8
DETROIT LAKES  FAIR      21  14  73 NW15G24   29.90S WCI   8
MOORHEAD       FAIR      23  10  58 NW22      29.95S WCI   8
PARK RAPIDS    PTSUNNY   23  14  68 W18       29.85R WCI   9
MAHNOMEN       FAIR      19  13  76 W15       29.89S WCI   5
$$
MNZ006-009>011-018-025>026-172000-
   North Central Minnesota

CITY           SKY/WX    TMP DP  RH WIND       PRES   REMARKS
BAUDETTE       FAIR      18   4  54 W10G22    29.78S WCI   6
FLAG ISLAND    FAIR      16   1  53 W20       29.78R WCI  -1
INTL FALLS     FAIR      20   3  48 W17G24    29.77R WCI   5
WASKISH        CLOUDY    19  10  68 SW15      29.82R WCI   5
BIG FORK       CLOUDY    21  10  63 W10G17    29.79S WCI  10
LONGVILLE      CLOUDY    25  12  58 W8        29.83S WCI  16
GRAND RAPIDS   CLOUDY    23  12  62 W15G22    29.82R WCI  10
CRANE LAKE     PTSUNNY   21   7  53 W9G17     29.76S WCI  11
ORR            PTSUNNY   23   7  50 W12       29.73R WCI  12
COOK           CLOUDY    21  10  63 W10       29.76S WCI  10
WALKER         CLOUDY    23  11  61 W15G23    29.83S WCI  10
$$
MNZ012-019>021-037-172000-
   Northeast Minnesota

CITY           SKY/WX    TMP DP  RH WIND       PRES   REMARKS
DULUTH         FAIR      27  12  53 W22G31    29.75F WCI  13
ELY            PTSUNNY   21  10  63 W14G22    29.72S WCI   8
HIBBING        CLOUDY    22   9  57 W12G20    29.77S WCI  10
EVELETH        CLOUDY   N/A N/A N/A W16G23    29.77S
DULUTH HARBOR  FAIR      30  18  59 W15G23    29.81S WCI  19
TWO HARBORS    FAIR      34  16  47 W15G22    29.73F WCI  24
G MARAIS ARPRT CLOUDY    23   7  50 W7G20     29.65F WCI  15
$$
MNZ029>031-032-039>041-046>048-054>057-064-172000-
   West Central Minnesota

CITY           SKY/WX    TMP DP  RH WIND       PRES   REMARKS
FERGUS FALLS   FAIR      27  14  59 NW22      29.93R WCI  12
WHEATON        SUNNY     30   9  40 W15G24    29.98R WCI  19
MORRIS         PTSUNNY   34  10  37 NW21G28   29.92R WCI  22
ALEXANDRIA     FAIR      30  10  43 NW20G29   29.89S WCI  17
ELBOW LAKE     FAIR      28  13  54 NW20      29.93S WCI  14
WADENA         FAIR      25  14  63 W10G21    29.88S WCI  15
GLENWOOD       FAIR      32  12  43 NW23G29   29.90R WCI  19
APPLETON       MOSUNNY   36  14  41 NW17G24   29.94S
BENSON         MOSUNNY   36  10  35 N21G29    29.93S
MADISON        MOSUNNY   39  18  41 NW15G26   29.95S
WILLMAR        FAIR      36  16  44 NW18G29   29.93S
$$
MNZ033>034-036-042>043-049>051-058-059-172000-
   Central Minnesota

CITY           SKY/WX    TMP DP  RH WIND       PRES   REMARKS
ST CLOUD       FAIR      33  17  51 W16G25    29.87S WCI  23
SAUK CENTRE    FAIR      31  12  46 W17G25    29.88F WCI  19
PAYNESVILLE    FAIR      34  16  48 NW18G24   29.89S WCI  23
AITKIN         FAIR      27  14  59 W8        29.81F WCI  18
PINE RIVER     PTSUNNY   25  10  54 W10G17    29.87S WCI  15
BRAINERD       FAIR      29  13  51 W12       29.85S WCI  19
STAPLES        FAIR      25  14  63 W20       29.87S WCI  11
LONG PRAIRIE   FAIR      30  10  43 SW16G23   29.88S WCI  19
LITTLE FALLS   FAIR      32   5  32 W10       29.87S WCI  24
LITCHFIELD     FAIR      36  18  48 W13G21    29.89S
BUFFALO        FAIR      35  18  49 W8G16     29.88F WCI  29
MAPLE LAKE     FAIR      37  20  50 W13G20    29.88F
HUTCHINSON     FAIR      37  20  50 NW17G24   29.90S
$$
MNZ037-044-045-052-053-172000-
   East Central Minnesota

CITY           SKY/WX    TMP DP  RH WIND       PRES   REMARKS
PRINCETON      FAIR      37  18  44 W12G17    29.86S
MORA           FAIR      34  14  44 W14G20    29.85F WCI  24
CAMBRIDGE      FAIR      36  19  51 W13       29.85F
RUSH CITY      FAIR      34  19  54 W6        29.84F WCI  29
MOOSE LAKE     FAIR      32  14  47 W12G18    29.80S WCI  23
HINCKLEY       FAIR      32  18  55 W10       29.83F WCI  24
CLOQUET        FAIR      27  12  54 W15G23    29.78S WCI  15
MCGREGOR       PTSUNNY   28  16  59 W13G20    29.82S WCI  18
$$
MNZ071>073-080-081-089-090-097-098-172000-
   Southwest Minnesota

CITY           SKY/WX    TMP DP  RH WIND       PRES   REMARKS
MONTEVIDEO     SUNNY     37  18  44 N15G21    29.93S
GRANITE FALLS  SUNNY     37  19  48 NW15      29.95R
CANBY          SUNNY     37  18  47 W15G22    29.95F
MARSHALL       SUNNY     36  18  48 NW16G26   29.93S
REDWOOD FALLS  SUNNY     36  19  50 NW16G23   29.92R
OLIVIA         SUNNY     36  19  51 NW16G22   29.91S
PIPESTONE      MOSUNNY   34  23  64 NW16G22   29.93R WCI  23
WINDOM         PTSUNNY   34  18  51 W12       29.92S WCI  25
WORTHINGTON    SUNNY     32  26  78 W22       29.94R WCI  19
JACKSON        MOSUNNY   30  25  80 W16G22    29.93R WCI  19
TRACY          PTSUNNY   36  27  69 NW12G20   29.92S
SLAYTON        MOSUNNY   32  26  76 W16       29.94R WCI  22
$$
MNZ065>067-074>077-082>085-091>093-172000-
   South Central Minnesota

CITY           SKY/WX    TMP DP  RH WIND       PRES   REMARKS
MANKATO        CLOUDY    32  24  72 W10       29.91S WCI  24
NEW ULM        SUNNY     34  21  60 W13       29.91S WCI  25
ST JAMES       SUNNY     32  25  74 W12       29.93S WCI  23
FAIRMONT       MOSUNNY   31  25  78 W14       29.93R WCI  21
GLENCOE        FAIR      35  23  62 W15       29.89S WCI  25
FARIBAULT      PTSUNNY   30  23  74 W6        29.90S WCI  24
OWATONNA       PTSUNNY   28  25  86 W12       29.89S WCI  18
WASECA         FAIR      30  25  80 W13       29.91S WCI  20
ALBERT LEA     CLOUDY    28  21  74 W9        29.89F WCI  20
$$
MNZ078>079-086>088-094>096-172000-
   Southeast Minnesota

CITY           SKY/WX    TMP DP  RH WIND       PRES   REMARKS
ROCHESTER      CLOUDY    25  22  88 W14       29.87F WCI  13
RED WING       CLOUDY    28  19  69 W9        29.89S WCI  20
STANTON        CLOUDY    30  24  77 W8        29.88S WCI  22
DODGE CENTER   CLOUDY    27  21  80 W14       29.87F WCI  15
WINONA         LGT SNOW  30  23  74 W7        29.90F WCI  23
AUSTIN         CLOUDY    27  21  80 W12       29.89F WCI  16
PRESTON        FLURRIES  26  20  79 W14       29.88F WCI  15
$$
ABBREVIATIONS USED IN REMARKS
   TC - TEMPERATURES IN CELSIUS
  WCI - WIND CHILL INDEX
   HX - HEAT INDEX
  VSB - VISIBILITY
$$




USA.gov is the U.S. government's official web portal to all federal, state and local government web resources and services.